Temp: 1.9°C   Baro: 1027.2mb
  Wind: 2.0mph   Dir: ESE (123°)
  Rain: 0.0mm (0.0mm/hr)
  Solar: 105W/m2  Hum: 97%

Historic data

Bath Spa Weather Station Historical Data
Daily Summary for October 02, 2022 Units:  Metric    English   Both
Daily Weekly Monthly Yearly Custom
  High: Low: Average:
Temperature: 18.2 °C 8.5 °C 13.5 °C
Dew Point: 13.5 °C 6.7 °C 10.9 °C
Humidity: 95% 63.8% 85%
Wind Speed: 12.7km/h 0km/h 2.6km/h
Wind Gust: 20.9km/h - -
Wind- - WNW
Pressure: 1027.3 hPa 1015.1 hPa -
Precipitation: 7.11 mm    
Historical Graphs
 
 
Tabular Data for October 02, 2022
Time Temperature Dew Point Pressure Wind Wind Speed Wind Gust Humidity Rainfall Rate (Hourly) solar
00:09 13.3 °C 11.9 °C 1015.1 hPa West 4.5 km/h 8 km/h 91.2% 0.51 mm 0 W/m2
00:14 13.2 °C 11.9 °C 1015.1 hPa WSW 4 km/h 9.7 km/h 92% 0.51 mm 0 W/m2
00:19 13.2 °C 11.9 °C 1015.5 hPa West 4.7 km/h 9.7 km/h 92% 0.76 mm 0 W/m2
00:24 13.2 °C 11.9 °C 1015.5 hPa WNW 4.5 km/h 9.7 km/h 92% 0.76 mm 0 W/m2
00:29 13.2 °C 11.9 °C 1015.5 hPa West 3.2 km/h 6.4 km/h 92% 0.51 mm 0 W/m2
00:34 13.2 °C 11.9 °C 1015.5 hPa West 2.7 km/h 6.4 km/h 92% 0.51 mm 0 W/m2
00:39 13.2 °C 11.9 °C 1015.5 hPa West 1.9 km/h 4.8 km/h 92% 0.51 mm 0 W/m2
00:44 13.2 °C 11.9 °C 1015.5 hPa West 1.4 km/h 4.8 km/h 92% 0.51 mm 0 W/m2
00:49 13.2 °C 11.9 °C 1015.5 hPa West 3.2 km/h 6.4 km/h 92% 0.51 mm 0 W/m2
00:54 13.2 °C 11.8 °C 1015.5 hPa West 3.1 km/h 8 km/h 92% 0.51 mm 0 W/m2
00:59 13.1 °C 11.8 °C 1015.5 hPa West 1.9 km/h 4.8 km/h 92% 0.25 mm 0 W/m2
01:04 13.1 °C 11.8 °C 1015.5 hPa West 1.4 km/h 6.4 km/h 92% 0.25 mm 0 W/m2
01:09 13.1 °C 11.8 °C 1015.8 hPa West 1.8 km/h 4.8 km/h 92% 0.25 mm 0 W/m2
01:14 13.1 °C 11.7 °C 1015.8 hPa West 2.6 km/h 4.8 km/h 92% 0.25 mm 0 W/m2
01:19 13 °C 11.7 °C 1015.5 hPa WNW 2.7 km/h 6.4 km/h 92% 0.25 mm 0 W/m2
01:24 12.9 °C 11.7 °C 1015.5 hPa NW 0.6 km/h 9.7 km/h 92% 0 mm 0 W/m2
01:29 12.9 °C 11.6 °C 1015.5 hPa Calm   3.2 km/h 92% 0 mm 0 W/m2
01:34 12.9 °C 11.6 °C 1015.8 hPa Calm     92% 0 mm 0 W/m2
01:39 12.9 °C 11.6 °C 1015.8 hPa NW 0.8 km/h 3.2 km/h 92% 0 mm 0 W/m2
01:44 12.9 °C 11.6 °C 1015.8 hPa NW 0.8 km/h 3.2 km/h 92% 0 mm 0 W/m2
01:49 12.9 °C 11.6 °C 1015.8 hPa NW 0.6 km/h 3.2 km/h 92% 0 mm 0 W/m2
01:54 12.8 °C 11.6 °C 1015.8 hPa NW 0.6 km/h 3.2 km/h 92% 0 mm 0 W/m2
01:59 12.8 °C 11.6 °C 1016.1 hPa Calm     92% 0 mm 0 W/m2
02:04 12.8 °C 11.5 °C 1016.1 hPa Calm     92% 0 mm 0 W/m2
02:09 12.8 °C 11.5 °C 1016.1 hPa Calm     92% 0 mm 0 W/m2
02:14 12.8 °C 11.5 °C 1016.1 hPa NW 2.3 km/h 6.4 km/h 92% 0 mm 0 W/m2
02:19 12.8 °C 11.5 °C 1016.1 hPa NW 1 km/h 3.2 km/h 92% 0 mm 0 W/m2
02:24 12.8 °C 11.5 °C 1016.1 hPa NW 0.3 km/h 3.2 km/h 92% 0 mm 0 W/m2
02:29 12.8 °C 11.5 °C 1016.1 hPa Calm     92% 0 mm 0 W/m2
02:34 12.8 °C 11.6 °C 1016.1 hPa Calm     92.6% 0 mm 0 W/m2
02:39 12.7 °C 11.6 °C 1016.1 hPa Calm     93% 0 mm 0 W/m2
02:44 12.7 °C 11.6 °C 1016.1 hPa Calm     93% 0 mm 0 W/m2
02:49 12.7 °C 11.7 °C 1016.1 hPa Calm     93% 0 mm 0 W/m2
02:54 12.7 °C 11.6 °C 1016.1 hPa Calm     93% 0 mm 0 W/m2
02:59 12.7 °C 11.6 °C 1016.1 hPa NW 1.1 km/h 3.2 km/h 93% 0 mm 0 W/m2
03:04 12.7 °C 11.6 °C 1016.1 hPa NW 0.8 km/h 4.8 km/h 93% 0 mm 0 W/m2
03:09 12.7 °C 11.6 °C 1016.1 hPa NW 2.6 km/h 4.8 km/h 93% 0 mm 0 W/m2
03:14 12.7 °C 11.6 °C 1016.1 hPa NW 3.4 km/h 6.4 km/h 93% 0 mm 0 W/m2
03:19 12.6 °C 11.5 °C 1016.1 hPa NW 2.6 km/h 4.8 km/h 93% 0 mm 0 W/m2
03:24 12.7 °C 11.6 °C 1016.1 hPa NW 1.9 km/h 4.8 km/h 93% 0 mm 0 W/m2
03:29 12.6 °C 11.5 °C 1016.5 hPa NW 1.9 km/h 4.8 km/h 93% 0 mm 0 W/m2
03:34 12.7 °C 11.6 °C 1016.5 hPa NW 2.6 km/h 4.8 km/h 93% 0 mm 0 W/m2
03:39 12.7 °C 11.6 °C 1016.5 hPa NW 2.4 km/h 4.8 km/h 93% 0.25 mm 0 W/m2
03:44 12.7 °C 11.6 °C 1016.5 hPa NW 1.9 km/h 6.4 km/h 93% 0.25 mm 0 W/m2
03:49 12.7 °C 11.6 °C 1016.1 hPa NW 1.3 km/h 3.2 km/h 93% 0.25 mm 0 W/m2
03:54 12.7 °C 11.6 °C 1016.1 hPa NW 1.9 km/h 4.8 km/h 93% 0.25 mm 0 W/m2
03:59 12.7 °C 11.6 °C 1016.5 hPa NW 2.1 km/h 4.8 km/h 93% 0.25 mm 0 W/m2
04:04 12.7 °C 11.6 °C 1016.5 hPa Calm   3.2 km/h 93% 0.25 mm 0 W/m2
04:09 12.7 °C 11.6 °C 1016.5 hPa NW 0.3 km/h 1.6 km/h 93% 0.25 mm 0 W/m2
04:14 12.7 °C 11.6 °C 1016.5 hPa NW 0.6 km/h 3.2 km/h 93% 0.25 mm 0 W/m2
04:19 12.7 °C 11.6 °C 1016.5 hPa NW 1.9 km/h 4.8 km/h 93% 0.25 mm 0 W/m2
04:24 12.7 °C 11.6 °C 1016.5 hPa NW 1 km/h 3.2 km/h 93% 0.25 mm 0 W/m2
04:29 12.7 °C 11.6 °C 1016.5 hPa Calm     93% 0.51 mm 0 W/m2
04:34 12.7 °C 11.6 °C 1016.5 hPa NW 2.3 km/h 4.8 km/h 93% 0.51 mm 0 W/m2
04:39 12.6 °C 11.6 °C 1016.8 hPa NW 3.2 km/h 4.8 km/h 93.2% 0.25 mm 0 W/m2
04:44 12.6 °C 11.7 °C 1016.8 hPa NW 1.9 km/h 4.8 km/h 94% 0.25 mm 0 W/m2
04:49 12.6 °C 11.7 °C 1016.8 hPa NW 0.6 km/h 3.2 km/h 94% 0.51 mm 0 W/m2
04:54 12.6 °C 11.7 °C 1017.2 hPa NW 1.3 km/h 3.2 km/h 94% 0.51 mm 0 W/m2
04:59 12.6 °C 11.7 °C 1017.2 hPa NW 1.3 km/h 3.2 km/h 94% 0.51 mm 0 W/m2
05:04 12.6 °C 11.7 °C 1016.8 hPa NW 0.3 km/h 1.6 km/h 93.8% 0.51 mm 0 W/m2
05:09 12.6 °C 11.5 °C 1016.8 hPa Calm     93% 0.76 mm 0 W/m2
05:14 12.6 °C 11.7 °C 1016.8 hPa Calm     94% 1.02 mm 0 W/m2
05:19 12.5 °C 11.6 °C 1016.8 hPa Calm     94% 1.27 mm 0 W/m2
05:24 12.4 °C 11.5 °C 1016.8 hPa Calm     94% 1.52 mm 0 W/m2
05:29 12.5 °C 11.6 °C 1016.8 hPa NW 0.3 km/h 3.2 km/h 94% 1.27 mm 0 W/m2
05:34 12.5 °C 11.6 °C 1016.8 hPa NW 1.1 km/h 3.2 km/h 94% 1.52 mm 0 W/m2
05:39 12.5 °C 11.6 °C 1016.8 hPa NW 0.8 km/h 3.2 km/h 94% 1.52 mm 0 W/m2
05:44 12.4 °C 11.6 °C 1017.2 hPa NW 1 km/h 3.2 km/h 94% 1.52 mm 0 W/m2
05:49 12.5 °C 11.6 °C 1017.2 hPa NW 0.3 km/h 3.2 km/h 94% 1.52 mm 0 W/m2
05:54 12.4 °C 11.6 °C 1017.2 hPa Calm     94% 1.52 mm 0 W/m2
05:59 12.4 °C 11.5 °C 1017.2 hPa Calm     94% 1.52 mm 0 W/m2
06:04 12.4 °C 11.5 °C 1016.8 hPa Calm     94% 1.52 mm 0 W/m2
06:09 12.4 °C 11.5 °C 1017.2 hPa Calm     94% 1.52 mm 0 W/m2
06:14 12.4 °C 11.5 °C 1017.2 hPa Calm     94% 1.52 mm 0 W/m2
06:19 12.4 °C 11.5 °C 1017.5 hPa NW 0.3 km/h 3.2 km/h 94% 1.52 mm 0 W/m2
06:24 12.4 °C 11.5 °C 1017.5 hPa NW 3.4 km/h 6.4 km/h 94% 1.27 mm 0 W/m2
06:29 12.4 °C 11.5 °C 1017.5 hPa NW 3.7 km/h 6.4 km/h 94% 1.27 mm 0 W/m2
06:34 12.4 °C 11.5 °C 1017.5 hPa NW 3.4 km/h 6.4 km/h 94% 1.27 mm 0 W/m2
06:39 12.4 °C 11.5 °C 1017.8 hPa WNW 2.4 km/h 6.4 km/h 94% 1.27 mm 0 W/m2
06:44 12.4 °C 11.5 °C 1017.8 hPa WNW 3.4 km/h 6.4 km/h 94% 1.27 mm 0 W/m2
06:49 12.3 °C 11.4 °C 1017.8 hPa WNW 2.7 km/h 6.4 km/h 94% 1.27 mm 0 W/m2
06:54 12.3 °C 11.4 °C 1017.8 hPa WNW 3.7 km/h 8 km/h 94% 1.27 mm 0 W/m2
06:59 12.3 °C 11.4 °C 1018.2 hPa West 1.6 km/h 4.8 km/h 94% 1.52 mm 0 W/m2
07:04 12.2 °C 11.3 °C 1017.8 hPa West 1.6 km/h 4.8 km/h 94% 1.52 mm 0 W/m2
07:09 12.2 °C 11.2 °C 1018.2 hPa West 2.6 km/h 6.4 km/h 94% 1.52 mm 0 W/m2
07:14 12.1 °C 11.2 °C 1018.2 hPa Calm   3.2 km/h 94% 1.52 mm 0 W/m2
07:19 11.9 °C 11 °C 1018.5 hPa West 0.6 km/h 1.6 km/h 94% 1.52 mm 0 W/m2
07:24 11.8 °C 10.9 °C 1018.5 hPa Calm     94% 1.52 mm 0 W/m2
07:29 11.8 °C 10.9 °C 1018.5 hPa Calm     94% 1.52 mm 0 W/m2
07:34 11.8 °C 10.9 °C 1018.5 hPa Calm     94% 1.52 mm 0 W/m2
07:39 11.8 °C 10.9 °C 1018.5 hPa Calm     94% 1.52 mm 0 W/m2
07:44 11.8 °C 10.9 °C 1018.8 hPa West 1.3 km/h 3.2 km/h 94% 1.52 mm 0 W/m2
07:49 11.7 °C 10.8 °C 1018.8 hPa West 2.3 km/h 4.8 km/h 94% 1.52 mm 0 W/m2
07:54 11.7 °C 10.8 °C 1018.8 hPa West 2.4 km/h 6.4 km/h 94.6% 1.52 mm 0 W/m2
07:59 11.6 °C 10.8 °C 1018.8 hPa West 2.7 km/h 4.8 km/h 95% 1.52 mm 5 W/m2
08:04 11.4 °C 10.5 °C 1019.2 hPa West 1.4 km/h 4.8 km/h 94% 1.52 mm 7 W/m2
08:09 11.3 °C 10.5 °C 1019.2 hPa West 2.1 km/h 3.2 km/h 94.4% 1.52 mm 9 W/m2
08:14 11.3 °C 10.5 °C 1019.2 hPa West 1.9 km/h 4.8 km/h 95% 1.52 mm 12 W/m2
08:19 11.2 °C 10.4 °C 1019.5 hPa West 2.4 km/h 4.8 km/h 95% 1.52 mm 14 W/m2
08:24 11.2 °C 10.4 °C 1019.5 hPa West 2.1 km/h 4.8 km/h 95% 1.52 mm 12 W/m2
08:29 11.1 °C 10.3 °C 1019.5 hPa West 2.7 km/h 4.8 km/h 94.2% 1.52 mm 14 W/m2
08:34 11.1 °C 10.2 °C 1019.5 hPa West 0.8 km/h 4.8 km/h 94% 1.78 mm 14 W/m2
08:39 11.1 °C 10.3 °C 1019.5 hPa West 0.3 km/h 3.2 km/h 94.4% 1.78 mm 21 W/m2
08:44 11.1 °C 10.3 °C 1019.5 hPa Calm   1.6 km/h 94.6% 1.78 mm 26 W/m2
08:49 11.2 °C 10.4 °C 1019.5 hPa West 0.8 km/h 3.2 km/h 95% 1.78 mm 26 W/m2
08:54 11.2 °C 10.3 °C 1019.5 hPa Calm   3.2 km/h 95% 2.03 mm 25 W/m2
08:59 11.2 °C 10.3 °C 1019.5 hPa Calm     94.8% 1.78 mm 26 W/m2
09:04 11.2 °C 10.3 °C 1019.5 hPa West 1.4 km/h 3.2 km/h 94.6% 1.78 mm 30 W/m2
09:09 11.1 °C 10.2 °C 1019.9 hPa West 0.6 km/h 4.8 km/h 94% 1.52 mm 39 W/m2
09:14 11.1 °C 10.3 °C 1019.9 hPa West 2.6 km/h 4.8 km/h 94.4% 1.52 mm 51 W/m2
09:19 11.1 °C 10.3 °C 1019.9 hPa West 2.6 km/h 4.8 km/h 94.2% 1.52 mm 65 W/m2
09:24 11.1 °C 10.2 °C 1019.9 hPa West 0.6 km/h 4.8 km/h 94% 1.52 mm 81 W/m2
09:29 11.2 °C 10.3 °C 1020.2 hPa Calm   3.2 km/h 94.8% 1.27 mm 90 W/m2
09:34 11.2 °C 10.4 °C 1020.2 hPa West 1.4 km/h 3.2 km/h 95% 1.02 mm 90 W/m2
09:39 11.3 °C 10.5 °C 1020.2 hPa West 1.9 km/h 3.2 km/h 95% 0.76 mm 86 W/m2
09:44 11.3 °C 10.5 °C 1020.2 hPa West 1.6 km/h 3.2 km/h 95% 0.51 mm 91 W/m2
09:49 11.3 °C 10.5 °C 1019.9 hPa West 2.6 km/h 4.8 km/h 95% 0.51 mm 90 W/m2
09:54 11.3 °C 10.5 °C 1019.9 hPa West 1.3 km/h 4.8 km/h 95% 0.51 mm 91 W/m2
09:59 11.3 °C 10.5 °C 1020.2 hPa Calm   1.6 km/h 94.6% 0.25 mm 114 W/m2
10:04 11.4 °C 10.6 °C 1020.2 hPa West 0.3 km/h 1.6 km/h 94% 0.25 mm 123 W/m2
10:09 11.5 °C 10.7 °C 1020.2 hPa Calm   1.6 km/h 94.2% 0.25 mm 128 W/m2
10:14 11.6 °C 10.8 °C 1020.2 hPa West 0.6 km/h 3.2 km/h 95% 0.25 mm 181 W/m2
10:19 11.7 °C 10.9 °C 1020.5 hPa West 1.9 km/h 4.8 km/h 94.4% 0 mm 278 W/m2
10:24 11.8 °C 10.9 °C 1020.5 hPa West 2.7 km/h 6.4 km/h 94% 0 mm 318 W/m2
10:29 11.9 °C 11 °C 1020.5 hPa West 3.4 km/h 6.4 km/h 94% 0 mm 355 W/m2
10:34 12.2 °C 11.3 °C 1020.5 hPa WNW 3.2 km/h 8 km/h 94.6% 0 mm 471 W/m2
10:39 12.6 °C 11.7 °C 1020.5 hPa West 4.3 km/h 9.7 km/h 94.4% 0 mm 482 W/m2
10:44 12.7 °C 11.7 °C 1020.5 hPa West 5.6 km/h 9.7 km/h 94% 0 mm 482 W/m2
10:49 12.9 °C 12 °C 1020.5 hPa West 3.7 km/h 8 km/h 94% 0 mm 443 W/m2
10:54 12.8 °C 11.9 °C 1020.5 hPa WNW 4.8 km/h 8 km/h 94% 0 mm 308 W/m2
10:59 12.8 °C 11.9 °C 1020.9 hPa WNW 3.7 km/h 6.4 km/h 94% 0 mm 197 W/m2
11:04 13.1 °C 12.2 °C 1020.9 hPa WNW 5.1 km/h 8 km/h 94% 0 mm 432 W/m2
11:09 13.2 °C 12.3 °C 1020.9 hPa WNW 4.7 km/h 8 km/h 93.8% 0 mm 438 W/m2
11:14 13.4 °C 12.4 °C 1020.9 hPa West 3.1 km/h 8 km/h 93.6% 0 mm 445 W/m2
11:19 13.6 °C 12.5 °C 1020.9 hPa WNW 5.5 km/h 11.3 km/h 93% 0 mm 454 W/m2
11:24 13.8 °C 12.7 °C 1020.9 hPa West 6.6 km/h 9.7 km/h 93% 0 mm 462 W/m2
11:29 13.9 °C 12.7 °C 1020.9 hPa West 4 km/h 9.7 km/h 92% 0 mm 478 W/m2
11:34 14.2 °C 12.9 °C 1021.2 hPa West 6.1 km/h 9.7 km/h 92% 0 mm 483 W/m2
11:39 14.3 °C 12.9 °C 1021.2 hPa West 6.4 km/h 9.7 km/h 91.2% 0 mm 485 W/m2
11:44 14.4 °C 12.8 °C 1021.2 hPa WNW 5.6 km/h 9.7 km/h 90.8% 0 mm 492 W/m2
11:49 14.5 °C 12.9 °C 1021.2 hPa West 3.5 km/h 8 km/h 90% 0 mm 497 W/m2
11:54 14.8 °C 13.2 °C 1021.6 hPa WSW 3.5 km/h 8 km/h 90% 0 mm 503 W/m2
11:59 15.3 °C 13.4 °C 1021.6 hPa WSW 4.5 km/h 9.7 km/h 88.8% 0 mm 508 W/m2
12:04 15.6 °C 13.5 °C 1021.6 hPa West 3.4 km/h 8 km/h 87.8% 0 mm 527 W/m2
12:09 15.6 °C 13.3 °C 1021.6 hPa NW 7.2 km/h 11.3 km/h 86.4% 0 mm 520 W/m2
12:14 15.7 °C 13.1 °C 1021.6 hPa North 5.3 km/h 14.5 km/h 84.8% 0 mm 545 W/m2
12:19 15.7 °C 12.7 °C 1021.6 hPa NNW 6 km/h 12.9 km/h 82.6% 0 mm 559 W/m2
12:24 15.9 °C 12.8 °C 1021.6 hPa NW 5.3 km/h 9.7 km/h 81.6% 0 mm 617 W/m2
12:29 16.1 °C 12.6 °C 1021.6 hPa WNW 9 km/h 12.9 km/h 80% 0 mm 605 W/m2
12:34 16.2 °C 12.5 °C 1021.6 hPa WNW 6 km/h 11.3 km/h 78.6% 0 mm 580 W/m2
12:39 16.5 °C 12.7 °C 1021.9 hPa NNE 2.1 km/h 8 km/h 78% 0 mm 631 W/m2
12:44 17.1 °C 13 °C 1021.9 hPa NW 2.6 km/h 8 km/h 77.2% 0 mm 132 W/m2
12:49 16.7 °C 12.3 °C 1022.2 hPa WNW 5 km/h 11.3 km/h 75.2% 0 mm 499 W/m2
12:54 16.3 °C 12 °C 1022.2 hPa WNW 2.9 km/h 8 km/h 75.4% 0 mm 656 W/m2
12:59 16.6 °C 12.3 °C 1022.2 hPa WNW 6.6 km/h 14.5 km/h 75.6% 0 mm 657 W/m2
13:04 16.8 °C 12.1 °C 1022.2 hPa WNW 5.6 km/h 12.9 km/h 74.2% 0 mm 612 W/m2
13:09 16.8 °C 11.9 °C 1022.2 hPa NW 7.7 km/h 12.9 km/h 73% 0 mm 610 W/m2
13:14 16.7 °C 11.8 °C 1022.2 hPa WNW 7.1 km/h 12.9 km/h 72.8% 0 mm 622 W/m2
13:19 17.1 °C 12.2 °C 1022.2 hPa WNW 8 km/h 12.9 km/h 73% 0 mm 636 W/m2
13:24 17.2 °C 12.2 °C 1022.2 hPa West 6.9 km/h 12.9 km/h 72.2% 0 mm 645 W/m2
13:29 17.2 °C 12.1 °C 1022.2 hPa NW 5.3 km/h 12.9 km/h 72.2% 0 mm 691 W/m2
13:34 17.4 °C 12.3 °C 1022.2 hPa WNW 8.2 km/h 14.5 km/h 72.2% 0 mm 715 W/m2
13:39 17.3 °C 12 °C 1022.6 hPa NW 6.6 km/h 11.3 km/h 71% 0 mm 705 W/m2
13:44 17.2 °C 12.1 °C 1022.6 hPa NNW 5.6 km/h 9.7 km/h 71.8% 0 mm 322 W/m2
13:49 17.1 °C 12 °C 1022.6 hPa NW 6 km/h 12.9 km/h 72% 0 mm 621 W/m2
13:54 17.3 °C 12.1 °C 1022.6 hPa WNW 7.6 km/h 16.1 km/h 71.8% 0 mm 594 W/m2
13:59 17.5 °C 12.1 °C 1022.6 hPa West 6.6 km/h 12.9 km/h 70.4% 0 mm 619 W/m2
14:04 17.7 °C 12.2 °C 1022.6 hPa WNW 8 km/h 14.5 km/h 70% 0 mm 689 W/m2
14:09 17.8 °C 11.9 °C 1022.6 hPa West 5 km/h 14.5 km/h 68.8% 0 mm 701 W/m2
14:14 18.2 °C 12.2 °C 1022.6 hPa West 8.2 km/h 16.1 km/h 68% 0 mm 687 W/m2
14:19 18.2 °C 12.2 °C 1022.6 hPa WNW 10 km/h 17.7 km/h 68% 0 mm 682 W/m2
14:24 18.1 °C 12.5 °C 1022.6 hPa WNW 8.4 km/h 14.5 km/h 70% 0 mm 461 W/m2
14:29 17.6 °C 12.3 °C 1022.9 hPa WNW 12.7 km/h 20.9 km/h 71.2% 0 mm 121 W/m2
14:34 16.8 °C 11.8 °C 1022.9 hPa NNW 8.5 km/h 19.3 km/h 72.4% 0 mm 144 W/m2
14:39 16.7 °C 11.8 °C 1022.9 hPa NNW 6.3 km/h 16.1 km/h 73.2% 0 mm 144 W/m2
14:44 16.6 °C 11.9 °C 1022.9 hPa North 7.1 km/h 12.9 km/h 74% 0 mm 287 W/m2
14:49 16.7 °C 12 °C 1023.2 hPa North 8.4 km/h 12.9 km/h 74% 0 mm 225 W/m2
14:54 16.8 °C 12.1 °C 1023.2 hPa North 10 km/h 14.5 km/h 73.8% 0 mm 216 W/m2
14:59 16.8 °C 11.9 °C 1023.2 hPa NW 3.7 km/h 14.5 km/h 73% 0 mm 418 W/m2
15:04 16.8 °C 11.9 °C 1023.2 hPa NW 4 km/h 9.7 km/h 73% 0 mm 225 W/m2
15:09 16.9 °C 12 °C 1023.2 hPa NNW 5.6 km/h 12.9 km/h 72.8% 0 mm 294 W/m2
15:14 16.9 °C 11.8 °C 1023.2 hPa NNW 5.6 km/h 12.9 km/h 72% 0 mm 251 W/m2
15:19 16.9 °C 11.9 °C 1022.9 hPa North 4 km/h 8 km/h 72.4% 0 mm 267 W/m2
15:24 17.3 °C 12.4 °C 1023.2 hPa NNW 4.8 km/h 12.9 km/h 72.6% 0 mm 410 W/m2
15:29 17.5 °C 12.3 °C 1023.2 hPa NNW 3.9 km/h 8 km/h 71.4% 0 mm 424 W/m2
15:34 17.7 °C 12.2 °C 1022.9 hPa NNW 3.9 km/h 8 km/h 70% 0 mm 424 W/m2
15:39 17.8 °C 12.4 °C 1022.9 hPa NNW 3.4 km/h 6.4 km/h 70.6% 0 mm 461 W/m2
15:44 18 °C 12.2 °C 1022.9 hPa North 5.5 km/h 9.7 km/h 68.8% 0 mm 448 W/m2
15:49 18.1 °C 11.8 °C 1023.2 hPa WNW 4.7 km/h 12.9 km/h 67% 0 mm 408 W/m2
15:54 17.8 °C 11.5 °C 1023.2 hPa NW 3.2 km/h 9.7 km/h 66.8% 0 mm 134 W/m2
15:59 17.3 °C 11.3 °C 1023.2 hPa WNW 7.1 km/h 11.3 km/h 67.6% 0 mm 139 W/m2
16:04 17.2 °C 11.2 °C 1023.2 hPa NW 4.5 km/h 8 km/h 67.6% 0 mm 148 W/m2
16:09 17.1 °C 11 °C 1023.2 hPa WNW 5.6 km/h 9.7 km/h 67.4% 0 mm 141 W/m2
16:14 17.1 °C 11 °C 1023.2 hPa WNW 4.5 km/h 8 km/h 67.4% 0 mm 127 W/m2
16:19 17.1 °C 11.1 °C 1023.2 hPa West 2.3 km/h 6.4 km/h 68% 0 mm 123 W/m2
16:24 17.2 °C 11.1 °C 1023.2 hPa WNW 3.2 km/h 9.7 km/h 67.5% 0 mm 378 W/m2
16:29 17.5 °C 11.2 °C 1023.2 hPa WNW 4.7 km/h 9.7 km/h 66.8% 0 mm 373 W/m2
16:34 17.4 °C 11.1 °C 1023.6 hPa NW 9.7 km/h 16.1 km/h 66.4% 0 mm 186 W/m2
16:39 17.2 °C 11 °C 1023.6 hPa WNW 7.2 km/h 11.3 km/h 67.4% 0 mm 151 W/m2
16:44 17.2 °C 11.4 °C 1023.6 hPa NW 6.8 km/h 14.5 km/h 68.4% 0 mm 352 W/m2
16:49 17.4 °C 11.4 °C 1023.6 hPa WNW 4.5 km/h 11.3 km/h 68.2% 0 mm 142 W/m2
16:54 17.5 °C 11.7 °C 1023.6 hPa NW 7.1 km/h 14.5 km/h 69% 0 mm 304 W/m2
16:59 17.6 °C 11.4 °C 1023.6 hPa NNW 7.2 km/h 14.5 km/h 67.2% 0 mm 294 W/m2
17:04 17.3 °C 11.1 °C 1023.6 hPa NNW 7.1 km/h 11.3 km/h 66.8% 0 mm 104 W/m2
17:09 17.3 °C 11.2 °C 1023.9 hPa NNW 5.1 km/h 9.7 km/h 67.2% 0 mm 246 W/m2
17:14 17.5 °C 11.4 °C 1023.6 hPa North 6 km/h 11.3 km/h 67.2% 0 mm 216 W/m2
17:19 17.7 °C 11.6 °C 1023.6 hPa NNW 3.5 km/h 9.7 km/h 67% 0 mm 183 W/m2
17:24 18 °C 11.6 °C 1023.9 hPa North 4.3 km/h 11.3 km/h 66.2% 0 mm 169 W/m2
17:29 18.1 °C 11.3 °C 1023.9 hPa NW 4.8 km/h 9.7 km/h 64.2% 0 mm 156 W/m2
17:34 17.7 °C 10.8 °C 1023.9 hPa North 7.7 km/h 11.3 km/h 63.8% 0 mm 128 W/m2
17:39 17.4 °C 10.6 °C 1023.9 hPa NNW 3.9 km/h 9.7 km/h 64.2% 0 mm 104 W/m2
17:44 17.4 °C 10.7 °C 1023.9 hPa North 3.2 km/h 8 km/h 64.6% 0 mm 95 W/m2
17:49 17.5 °C 10.7 °C 1023.9 hPa North 5 km/h 8 km/h 64.6% 0 mm 84 W/m2
17:54 17.4 °C 10.7 °C 1023.9 hPa NNE 3.4 km/h 8 km/h 64.8% 0 mm 70 W/m2
17:59 17.4 °C 10.7 °C 1024.3 hPa North 5.1 km/h 6.4 km/h 64.8% 0 mm 62 W/m2
18:04 17.3 °C 10.6 °C 1024.3 hPa North 3.2 km/h 6.4 km/h 64.6% 0 mm 49 W/m2
18:09 17.2 °C 10.7 °C 1024.3 hPa North 4 km/h 8 km/h 65.8% 0 mm 39 W/m2
18:14 17 °C 10.7 °C 1024.6 hPa North 3.2 km/h 4.8 km/h 66.2% 0 mm 32 W/m2
18:19 16.8 °C 10.6 °C 1024.6 hPa North 3.9 km/h 6.4 km/h 67% 0 mm 26 W/m2
18:24 16.7 °C 11.1 °C 1024.6 hPa North 0.6 km/h 4.8 km/h 69% 0 mm 19 W/m2
18:29 16.6 °C 11.2 °C 1024.6 hPa North 1.8 km/h 4.8 km/h 70.4% 0 mm 12 W/m2
18:34 16.2 °C 11.1 °C 1024.6 hPa North 1 km/h 3.2 km/h 71.8% 0 mm 11 W/m2
18:39 16 °C 11.2 °C 1024.9 hPa North 0.8 km/h 3.2 km/h 73% 0 mm 7 W/m2
18:44 15.3 °C 10.6 °C 1024.6 hPa NNW 1.9 km/h 4.8 km/h 73.4% 0 mm 5 W/m2
18:49 14.9 °C 10.4 °C 1024.9 hPa NNW 0.3 km/h 3.2 km/h 74.6% 0 mm 0 W/m2
18:54 14.4 °C 10.2 °C 1024.9 hPa NNW 2.9 km/h 4.8 km/h 75.8% 0 mm 0 W/m2
18:59 14.1 °C 10.1 °C 1024.9 hPa NNW 3.5 km/h 6.4 km/h 76.8% 0 mm 0 W/m2
19:04 13.9 °C 9.9 °C 1024.9 hPa NNW 0.8 km/h 3.2 km/h 77% 0 mm 0 W/m2
19:09 14.2 °C 10.3 °C 1024.9 hPa NNW 0.3 km/h 1.6 km/h 78% 0 mm 0 W/m2
19:14 14.3 °C 10.5 °C 1024.9 hPa Calm   1.6 km/h 78% 0 mm 0 W/m2
19:19 14.1 °C 10.3 °C 1025.3 hPa NNW 0.8 km/h 1.6 km/h 78% 0 mm 0 W/m2
19:24 14 °C 10.2 °C 1025.3 hPa NNW 0.6 km/h 3.2 km/h 78% 0 mm 0 W/m2
19:29 13.5 °C 9.7 °C 1025.3 hPa NNW 0.8 km/h 1.6 km/h 78% 0 mm 0 W/m2
19:34 12.9 °C 9.3 °C 1025.6 hPa NNW 1.8 km/h 4.8 km/h 78% 0 mm 0 W/m2
19:39 12.7 °C 9 °C 1025.6 hPa NNW 1.6 km/h 3.2 km/h 78% 0 mm 0 W/m2
19:44 12.7 °C 9 °C 1025.6 hPa NNW 1.8 km/h 3.2 km/h 78% 0 mm 0 W/m2
19:49 12.6 °C 8.9 °C 1026 hPa NNW 2.1 km/h 3.2 km/h 78% 0 mm 0 W/m2
19:54 12.6 °C 8.9 °C 1026 hPa NNW 1.4 km/h 3.2 km/h 78.4% 0 mm 0 W/m2
19:59 12.4 °C 8.9 °C 1026 hPa Calm   1.6 km/h 79% 0 mm 0 W/m2
20:04 12.2 °C 8.8 °C 1026 hPa NNW 0.8 km/h 3.2 km/h 79.4% 0 mm 0 W/m2
20:09 12.1 °C 8.8 °C 1026.3 hPa Calm   1.6 km/h 80% 0 mm 0 W/m2
20:14 11.9 °C 8.7 °C 1026.3 hPa NNW 0.3 km/h 1.6 km/h 80.8% 0 mm 0 W/m2
20:19 11.7 °C 8.6 °C 1026.3 hPa Calm     81.2% 0 mm 0 W/m2
20:24 11.8 °C 8.8 °C 1026.3 hPa Calm     82% 0 mm 0 W/m2
20:29 11.8 °C 8.8 °C 1026.3 hPa Calm     82.2% 0 mm 0 W/m2
20:34 11.8 °C 9 °C 1026.3 hPa Calm     83% 0 mm 0 W/m2
20:39 11.8 °C 9 °C 1026.6 hPa North 1.3 km/h 4.8 km/h 83% 0 mm 0 W/m2
20:44 11.8 °C 9 °C 1026.3 hPa North 2.9 km/h 4.8 km/h 83% 0 mm 0 W/m2
20:49 11.7 °C 8.9 °C 1026.3 hPa North 0.3 km/h 3.2 km/h 83% 0 mm 0 W/m2
20:54 11.6 °C 8.8 °C 1026.6 hPa Calm     83% 0 mm 0 W/m2
20:58 11.6 °C 8.8 °C 1026.6 hPa Calm     83.3% 0 mm 0 W/m2
21:04 11.4 °C 8.8 °C 1026.6 hPa Calm     84% 0 mm 0 W/m2
21:09 11.3 °C 8.8 °C 1026.6 hPa North 1 km/h 3.2 km/h 84% 0 mm 0 W/m2
21:14 11.2 °C 8.6 °C 1026.6 hPa North 1.1 km/h 3.2 km/h 84% 0 mm 0 W/m2
21:19 11 °C 8.4 °C 1026.6 hPa Calm   3.2 km/h 84.2% 0 mm 0 W/m2
21:24 10.9 °C 8.5 °C 1026.6 hPa North 0.6 km/h 1.6 km/h 85% 0 mm 0 W/m2
21:29 11.1 °C 8.7 °C 1026.6 hPa North 0.6 km/h 1.6 km/h 85.2% 0 mm 0 W/m2
21:34 11.6 °C 9.2 °C 1026.6 hPa Calm     86% 0 mm 0 W/m2
21:39 11.6 °C 9.3 °C 1026.6 hPa Calm     86% 0 mm 0 W/m2
21:44 12.1 °C 9.8 °C 1026.6 hPa Calm     86.2% 0 mm 0 W/m2
21:49 12.2 °C 9.8 °C 1026.6 hPa Calm     86% 0 mm 0 W/m2
21:54 12.2 °C 9.9 °C 1026.6 hPa Calm     86% 0 mm 0 W/m2
21:59 12.2 °C 9.8 °C 1026.6 hPa Calm     85.8% 0 mm 0 W/m2
22:04 11.8 °C 9.4 °C 1026.6 hPa Calm   1.6 km/h 85% 0 mm 0 W/m2
22:09 11.5 °C 9.1 °C 1027 hPa Calm     85% 0 mm 0 W/m2
22:14 10.9 °C 8.6 °C 1027 hPa Calm     85% 0 mm 0 W/m2
22:19 10.7 °C 8.2 °C 1027 hPa Calm     85% 0 mm 0 W/m2
22:24 10.4 °C 8.1 °C 1027 hPa Calm     85% 0 mm 0 W/m2
22:29 10.3 °C 7.9 °C 1027 hPa Calm     85% 0 mm 0 W/m2
22:34 10.2 °C 7.8 °C 1027 hPa Calm   1.6 km/h 85.4% 0 mm 0 W/m2
22:39 10 °C 7.8 °C 1027 hPa Calm   1.6 km/h 86% 0 mm 0 W/m2
22:44 9.9 °C 7.7 °C 1027 hPa Calm     86% 0 mm 0 W/m2
22:49 9.8 °C 7.6 °C 1027 hPa Calm     86% 0 mm 0 W/m2
22:54 9.7 °C 7.4 °C 1027.3 hPa Calm     86% 0 mm 0 W/m2
22:59 9.6 °C 7.3 °C 1027.3 hPa Calm     86% 0 mm 0 W/m2
23:04 9.4 °C 7.3 °C 1027.3 hPa Calm   1.6 km/h 86.8% 0 mm 0 W/m2
23:09 9.3 °C 7.2 °C 1027.3 hPa Calm     87% 0 mm 0 W/m2
23:14 9.3 °C 7.2 °C 1027.3 hPa Calm   1.6 km/h 87% 0 mm 0 W/m2
23:19 9.2 °C 7.1 °C 1027.3 hPa Calm   1.6 km/h 87% 0 mm 0 W/m2
23:24 9.1 °C 7.1 °C 1027.3 hPa Calm     87% 0 mm 0 W/m2
23:29 8.9 °C 6.9 °C 1027.3 hPa Calm     87% 0 mm 0 W/m2
23:34 8.7 °C 6.8 °C 1027.3 hPa Calm     88% 0 mm 0 W/m2
23:39 8.7 °C 6.8 °C 1027.3 hPa Calm     88% 0 mm 0 W/m2
23:44 8.7 °C 6.8 °C 1027.3 hPa Calm     88% 0 mm 0 W/m2
23:49 8.6 °C 6.7 °C 1027.3 hPa Calm     88% 0 mm 0 W/m2
23:54 8.6 °C 6.7 °C 1027.3 hPa Calm     88% 0 mm 0 W/m2
23:59 8.5 °C 6.7 °C 1027 hPa Calm     88.4% 0 mm 0 W/m2
Bath Spa Weather
Compliments of Weather Underground - 2 mb